Regional Weather Roundup
Issued by NWS

Home | Current Version | Previous Version | Text Only | Print | Product List | Glossary Off
Versions: 1 2 3 4 5 6 7 8 9 10 11 12 13 14 15 16 17 18 19 20 21 22 23 24 25 26 27 28 29 30 31 32 33 34 35 36 37 38 39 40 41 42 43 44 45 46 47 48 49 50

000
ASUS43 KTOP 280008
RWRKS

WEATHER ROUNDUP FOR KANSAS
NATIONAL WEATHER SERVICE GOODLAND KS
700 PM CDT MON MAR 27 2017

NOTE:  "FAIR" INDICATES FEW OR NO CLOUDS BELOW 12,000 FEET WITH NO
SIGNIFICANT WEATHER AND/OR OBSTRUCTIONS TO VISIBILITY.

KSZ001>006-013>018-027>032-041>047-280100-
NORTHWEST KANSAS

CITY           SKY/WX    TMP DP  RH WIND       PRES   REMARKS
GOODLAND       CLOUDY    62  37  39 S10       29.84F
6HR MIN TEMP:  58; 6HR MAX TEMP:  66;

HAYS             N/A     61  41  47 E7        29.90R
HILL CITY      CLOUDY    60  44  55 E10       29.90R
6HR MIN TEMP:  49; 6HR MAX TEMP:  63;

RUSSELL        CLOUDY    58  42  55 E13       29.89S
6HR MIN TEMP:  55; 6HR MAX TEMP:  64;

$$

KSZ061>065-074>080-084>089-280100-
SOUTHWEST KANSAS

CITY           SKY/WX    TMP DP  RH WIND       PRES   REMARKS
DODGE CITY     SUNNY     63  38  39 E9        29.87F
6HR MIN TEMP:  57; 6HR MAX TEMP:  68;

GARDEN CITY    SUNNY     66  33  29 SE13      29.85F
6HR MIN TEMP:  59; 6HR MAX TEMP:  68;

LIBERAL        SUNNY     66  34  30 SE9G17    29.86S
PRATT          CLEAR     58  36  43 E6        29.91S
6HR MIN TEMP:  53; 6HR MAX TEMP:  61;

$$

KSZ066>073-081>083-090>101-280100-
SOUTHEAST KANSAS

CITY           SKY/WX    TMP DP  RH WIND       PRES   REMARKS
CHANUTE        CLOUDY    54  47  77 N7        29.94R
6HR MIN TEMP:  51; 6HR MAX TEMP:  56;

COFFEYVILLE    CLOUDY    56  49  77 N7        29.93R
6HR MIN TEMP:  54; 6HR MAX TEMP:  57;

HUTCHINSON     CLOUDY    54  46  74 E9        29.92F
6HR MIN TEMP:  51; 6HR MAX TEMP:  55;

MEDICINE LODGE   N/A     62  42  47 E9        29.90R
NEWTON         CLOUDY    52  46  80 NE6       29.94S
PARSONS        CLOUDY    56  47  71 N6        29.94R
6HR MIN TEMP:  53; 6HR MAX TEMP:  57;

WICHITA INTL   CLOUDY    54  46  74 NE10      29.92S
6HR MIN TEMP:  50; 6HR MAX TEMP:  54;

WICHITA JABRA  CLOUDY    53  47  79 NE9       29.92S
6HR MIN TEMP:  50; 6HR MAX TEMP:  54;

WICHITA MCCONL CLOUDY    54  45  72 E7        29.92S
WINFIELD       CLOUDY    55  46  71 NE8       29.94R
6HR MIN TEMP:  51; 6HR MAX TEMP:  55;

$$

KSZ007>012-019>026-033>040-048>060-102>105-280100-
NORTHEAST KANSAS

CITY           SKY/WX    TMP DP  RH WIND       PRES   REMARKS
CONCORDIA      CLOUDY    53  46  77 E5        29.93S
6HR MIN TEMP:  48; 6HR MAX TEMP:  55;

EMPORIA        CLOUDY    55  47  74 NE8       29.92S
6HR MIN TEMP:  51; 6HR MAX TEMP:  56;

LAWRENCE       CLOUDY    56  48  74 N9        29.93R
6HR MIN TEMP:  49; 6HR MAX TEMP:  59; 6HR PCP: TRACE;

MANHATTAN      CLOUDY    55  46  71 NE6       29.93S
6HR MIN TEMP:  53; 6HR MAX TEMP:  57;

MARYSVILLE     CLOUDY    52  43  71 NE5       29.94S
OLATHE IND     CLOUDY    52  46  80 N8        29.94R
6HR MIN TEMP:  48; 6HR MAX TEMP:  53; 6HR PCP:  0.01;

OLATHE EXE     CLOUDY    52  47  83 N6        29.93R
6HR MIN TEMP:  48; 6HR MAX TEMP:  52;

SALINA         CLOUDY    55  46  71 E6        29.94S
6HR MIN TEMP:  52; 6HR MAX TEMP:  57;

TOPEKA BILLARD CLOUDY    55  48  77 N7        29.94R
6HR MIN TEMP:  49; 6HR MAX TEMP:  58;

TOPEKA FORBES  CLOUDY    57  47  69 N7        29.93R
6HR MIN TEMP:  50; 6HR MAX TEMP:  58;

$$




USA.gov is the U.S. government's official web portal to all federal, state and local government web resources and services.